FW8483 Weather Reports


time (UTC)temp
C
wind
direction
speed
KPH
gust
KPH
rain 1hr
cm
rain 24hr
cm
rain mn
cm
humidity
%
barometer
mb
20260508175503 22 172 4.8 8.0 0.00 0.03 0.00 79 1014.5
20260508175004 22 92 4.8 6.4 0.00 0.03 0.00 79 1014.6
20260508174510 22 128 1.6 11.3 0.00 0.03 0.00 78 1014.7
20260508174003 22 101 6.4 11.3 0.00 0.03 0.00 78 1014.9
20260508173503 22 134 3.2 11.3 0.00 0.03 0.00 78 1015.0
20260508173026 22 150 3.2 12.9 0.00 0.03 0.00 77 1015.1
20260508172503 22 154 4.8 12.9 0.00 0.03 0.00 77 1015.2
20260508172003 22 146 4.8 9.7 0.00 0.03 0.00 79 1015.2
20260508171522 22 98 6.4 9.7 0.00 0.03 0.00 80 1015.2
20260508171003 22 135 3.2 9.7 0.00 0.03 0.00 79 1015.3
20260508170502 22 169 4.8 11.3 0.00 0.03 0.00 79 1015.2
20260508170006 22 84 3.2 11.3 0.00 0.03 0.00 80 1015.2
20260508165504 22 140 6.4 9.7 0.00 0.03 0.00 80 1015.2
20260508165004 22 155 4.8 9.7 0.00 0.05 0.00 80 1015.2
20260508164515 21 113 6.4 9.7 0.00 0.08 0.00 80 1015.2
20260508164004 21 99 4.8 9.7 0.00 0.13 0.00 81 1015.3
20260508163504 21 105 3.2 6.4 0.00 0.20 0.00 81 1015.4
20260508163018 21 105 4.8 6.4 0.00 0.23 0.00 82 1015.5
20260508162504 21 148 3.2 9.7 0.00 0.23 0.00 80 1015.6
20260508162004 21 61 3.2 9.7 0.00 0.28 0.00 82 1015.6
20260508161521 21 112 3.2 11.3 0.00 0.61 0.00 81 1015.6
20260508161003 21 112 3.2 11.3 0.00 0.94 0.00 81 1015.6
20260508160503 21 87 6.4 12.9 0.00 1.24 0.00 80 1015.6
20260508160021 21 97 8.0 14.5 0.00 1.37 0.00 79 1015.6
20260508155503 21 87 8.0 14.5 0.00 1.40 0.00 79 1015.6
20260508155004 21 44 8.0 14.5 0.00 1.42 0.00 79 1015.7
20260508154508 21 80 4.8 12.9 0.00 2.64 0.00 80 1015.5
20260508154004 21 71 4.8 11.3 0.00 4.01 0.00 81 1015.6
20260508153505 21 42 4.8 11.3 0.00 4.01 0.00 81 1015.6
20260508153012 21 70 4.8 11.3 0.00 4.01 0.00 81 1015.7
20260508152502 21 88 4.8 11.3 0.00 4.01 0.00 82 1015.9
20260508152006 21 91 6.4 11.3 0.00 4.01 0.00 82 1015.7
20260508151512 21 111 3.2 6.4 0.00 4.01 0.00 81 1015.9
20260508151004 21 12 4.8 8.0 0.00 4.01 0.00 82 1015.8
20260508150504 21 59 3.2 11.3 0.00 4.01 0.00 82 1015.9
20260508150015 21 73 4.8 11.3 0.00 4.01 0.00 82 1015.9
20260508145504 21 74 3.2 8.0 0.00 4.01 0.00 82 1016.0
20260508145004 21 5 1.6 12.9 0.00 4.01 0.00 82 1016.0
20260508144507 21 57 4.8 12.9 0.00 4.01 0.00 81 1016.1
20260508144003 21 82 4.8 12.9 0.00 4.01 0.00 82 1016.2
20260508143504 20 40 4.8 12.9 0.00 4.01 0.00 82 1016.1
20260508143018 20 15 4.8 14.5 0.00 4.01 0.00 82 1015.8
20260508142503 20 5 8.0 14.5 0.00 4.01 0.00 82 1016.0
20260508142004 20 65 4.8 14.5 0.00 4.01 0.00 82 1015.9
20260508141516 20 53 8.0 14.5 0.00 4.01 0.00 83 1015.7
20260508141006 20 62 3.2 11.3 0.00 4.01 0.00 83 1016.0
20260508140502 20 76 6.4 11.3 0.00 4.01 0.00 82 1016.1
20260508140016 20 49 6.4 11.3 0.00 4.01 0.00 82 1016.1
20260508135504 20 53 3.2 12.9 0.00 4.01 0.00 83 1016.1
20260508135003 20 360 6.4 12.9 0.00 4.01 0.00 83 1015.9
20260508134517 20 73 6.4 12.9 0.00 4.01 0.00 83 1015.8
20260508134007 20 19 4.8 8.0 0.00 4.01 0.00 83 1015.7
20260508133503 20 60 4.8 9.7 0.00 4.01 0.00 84 1015.6
20260508133013 20 52 4.8 9.7 0.00 4.01 0.00 84 1015.9
20260508132505 20 127 6.4 9.7 0.00 4.01 0.00 84 1015.6
20260508132002 20 41 6.4 9.7 0.00 4.01 0.00 85 1015.4
20260508131512 20 85 4.8 16.1 0.00 4.01 0.00 85 1015.6
20260508131005 20 28 8.0 16.1 0.00 4.01 0.00 85 1015.5
20260508130505 20 111 6.4 14.5 0.00 4.01 0.00 86 1015.5
20260508130024 20 97 4.8 14.5 0.00 4.01 0.00 86 1015.6
20260508125507 20 75 8.0 14.5 0.00 4.01 0.00 86 1015.6
20260508125008 19 87 4.8 12.9 0.00 4.01 0.00 86 1015.7
20260508124517 19 75 3.2 12.9 0.00 4.01 0.00 87 1015.9
20260508124007 19 26 6.4 12.9 0.00 4.01 0.00 86 1015.8
20260508123504 19 71 6.4 9.7 0.00 4.01 0.00 87 1015.8
20260508123008 19 75 3.2 8.0 0.00 4.01 0.00 87 1016.1
20260508122503 19 24 3.2 6.4 0.00 4.01 0.00 87 1016.1
20260508122005 19 5 0.0 6.4 0.00 4.01 0.00 88 1016.1
20260508121512 19 14 1.6 8.0 0.00 4.01 0.00 88 1016.1
20260508121005 19 40 1.6 8.0 0.00 4.01 0.00 87 1016.2
20260508120503 19 90 1.6 6.4 0.00 4.01 0.00 88 1015.9
20260508120017 19 50 3.2 6.4 0.00 4.01 0.00 88 1015.8
20260508115506 19 360 3.2 6.4 0.00 4.01 0.00 87 1015.8
20260508115005 19 352 1.6 4.8 0.00 4.01 0.00 87 1015.9
20260508114517 19 61 1.6 8.0 0.00 4.01 0.00 87 1015.9
20260508114006 19 307 3.2 8.0 0.00 4.01 0.00 87 1015.9
20260508113507 19 352 4.8 8.0 0.00 4.01 0.00 87 1015.7
20260508113021 19 343 3.2 9.7 0.00 4.01 0.00 87 1015.4
20260508112508 19 23 4.8 9.7 0.00 4.01 0.00 88 1015.2
20260508112004 19 352 3.2 8.0 0.00 4.01 0.00 88 1015.1
20260508111512 19 19 1.6 9.7 0.00 4.01 0.00 88 1015.0
20260508111005 19 15 6.4 9.7 0.00 4.01 0.00 88 1014.7
20260508110504 19 44 1.6 6.4 0.00 4.01 0.00 88 1014.5
20260508110017 19 29 3.2 6.4 0.00 4.01 0.00 88 1014.6
20260508105507 19 5 1.6 4.8 0.00 4.01 0.00 88 1014.9
20260508105009 19 24 0.0 3.2 0.00 4.01 0.00 88 1014.6
20260508104523 19 38 1.6 4.8 0.00 4.01 0.00 88 1014.4
20260508104006 19 66 0.0 4.8 0.00 4.01 0.00 89 1014.2
20260508103507 19 40 0.0 4.8 0.00 4.01 0.00 88 1014.1
20260508103024 19 65 1.6 4.8 0.00 4.01 0.00 89 1014.0
20260508102511 19 69 1.6 8.0 0.00 4.01 0.00 89 1014.0
20260508102007 19 46 4.8 8.0 0.00 4.01 0.00 89 1014.2
20260508101521 19 57 0.0 4.8 0.00 4.01 0.00 89 1014.1
20260508101004 19 55 1.6 4.8 0.00 4.01 0.00 89 1014.2
20260508100504 19 32 3.2 4.8 0.00 4.01 0.00 89 1014.2
20260508100018 19 19 1.6 4.8 0.00 4.01 0.00 89 1014.2
20260508095505 19 27 0.0 6.4 0.00 4.01 0.00 89 1014.2
20260508095006 19 50 3.2 6.4 0.00 4.01 0.00 89 1013.8
20260508094521 19 43 3.2 6.4 0.00 4.01 0.00 89 1013.9
20260508094013 19 29 3.2 6.4 0.00 4.01 0.00 89 1013.9
20260508093507 20 9 4.8 6.4 0.00 4.01 0.00 89 1013.7
20260508093025 20 31 3.2 6.4 0.00 4.01 0.00 89 1013.5
20260508092507 20 63 3.2 4.8 0.00 4.01 0.00 89 1013.5
20260508092007 20 318 1.6 3.2 0.00 4.01 0.00 89 1013.7
20260508091527 20 40 1.6 3.2 0.00 4.01 0.00 89 1013.6
20260508091008 20 12 1.6 3.2 0.00 4.01 0.00 89 1013.7
20260508090510 20 360 1.6 3.2 0.00 4.01 0.00 89 1013.8
20260508090021 20 346 1.6 6.4 0.00 4.01 0.00 89 1013.7
20260508085504 20 35 0.0 6.4 0.00 4.01 0.00 89 1013.8
20260508085004 20 36 1.6 4.8 0.00 4.01 0.00 89 1013.7
20260508084520 20 360 1.6 6.4 0.00 4.01 0.00 89 1013.7
20260508084009 20 5 1.6 6.4 0.00 4.01 0.00 89 1013.7
20260508083507 20 5 1.6 6.4 0.00 4.01 0.00 89 1013.7
20260508083021 20 9 1.6 6.4 0.00 4.01 0.00 89 1013.6
20260508082507 20 31 3.2 6.4 0.00 4.01 0.00 90 1013.6
20260508082008 20 339 1.6 6.4 0.00 4.01 0.00 90 1013.7
20260508081529 20 9 0.0 3.2 0.00 4.01 0.00 91 1013.5
20260508081006 20 29 1.6 3.2 0.00 4.01 0.00 91 1013.6
20260508080515 20 360 0.0 0.0 0.00 4.01 0.00 91 1013.7
20260508080025 20 360 0.0 0.0 0.00 4.01 0.00 91 1013.8
20260508075508 20 360 0.0 0.0 0.00 4.01 0.00 91 1013.6
20260508075005 20 360 0.0 4.8 0.00 4.01 0.00 91 1013.4
20260508074515 20 360 0.0 4.8 0.00 4.01 0.00 91 1013.5
20260508074004 20 18 1.6 4.8 0.00 4.01 0.00 91 1013.6
20260508073506 20 350 0.0 4.8 0.00 4.01 0.00 91 1013.7
20260508073024 20 352 3.2 4.8 0.00 4.01 0.00 91 1013.9
20260508072507 20 328 1.6 4.8 0.00 4.01 0.00 91 1014.0
20260508072006 20 318 0.0 4.8 0.00 4.01 0.00 91 1013.9
20260508071529 20 323 1.6 4.8 0.00 4.01 0.00 91 1014.0
20260508071006 20 311 3.2 6.4 0.00 4.01 0.00 90 1013.9
20260508070504 20 15 0.0 6.4 0.00 4.01 0.00 90 1013.6
20260508070010 20 352 3.2 8.0 0.00 4.01 0.00 90 1013.6
20260508065504 20 5 4.8 12.9 0.00 4.01 0.00 90 1013.6
20260508065005 20 9 3.2 12.9 0.00 4.01 0.00 90 1013.6
20260508064514 20 342 4.8 8.0 0.00 4.01 0.00 90 1013.8
20260508064008 20 322 1.6 8.0 0.00 4.01 0.00 90 1013.9
20260508063506 20 350 1.6 6.4 0.00 4.01 0.00 90 1013.9
20260508063021 21 333 1.6 6.4 0.00 4.01 0.00 90 1014.0
20260508062509 21 348 4.8 8.0 0.00 4.01 0.00 90 1014.0
20260508062007 21 13 1.6 8.0 0.00 4.01 0.00 89 1014.0
20260508061527 21 26 1.6 6.4 0.00 4.01 0.00 90 1013.9
20260508061008 21 15 3.2 6.4 0.00 4.01 0.00 90 1013.9
20260508060509 21 37 3.2 6.4 0.00 4.01 0.00 90 1013.9
20260508060009 21 360 3.2 8.0 0.00 4.01 0.00 90 1014.0
20260508055503 21 331 3.2 8.0 0.00 4.01 0.00 90 1014.0
20260508055003 21 17 3.2 6.4 0.00 4.01 0.00 90 1014.0
20260508054520 21 344 3.2 4.8 0.00 4.01 0.00 91 1014.0
20260508054005 21 340 0.0 3.2 0.00 4.01 0.00 92 1014.1
20260508053506 21 307 0.0 3.2 0.00 4.01 0.00 92 1014.1
20260508053022 21 28 0.0 6.4 0.00 4.01 0.00 92 1014.1
20260508052512 21 330 3.2 6.4 0.00 4.01 0.00 92 1014.2
20260508052006 21 325 1.6 4.8 0.00 4.01 0.00 92 1014.2
20260508051530 21 340 0.0 4.8 0.00 4.01 0.00 92 1014.3
20260508051008 21 5 0.0 4.8 0.00 4.01 0.00 92 1014.3
20260508050513 21 30 1.6 6.4 0.00 4.01 0.00 92 1014.2
20260508050028 21 352 3.2 6.4 0.00 4.01 0.00 92 1014.3
20260508045508 21 331 1.6 6.4 0.00 4.01 4.01 92 1014.3
20260508045006 21 327 1.6 4.8 0.00 4.01 4.01 92 1014.2
20260508044511 21 5 1.6 4.8 0.00 4.01 4.01 92 1014.0
20260508044005 21 352 1.6 3.2 0.00 4.01 4.01 92 1014.2
20260508043508 21 308 0.0 6.4 0.00 4.01 4.01 92 1014.4
20260508043019 21 27 1.6 6.4 0.00 4.01 4.01 92 1014.3
20260508042506 22 350 0.0 4.8 0.00 4.01 4.01 92 1014.2
20260508042007 22 38 1.6 8.0 0.00 4.01 4.01 93 1014.1
20260508041522 22 333 3.2 8.0 0.00 4.01 4.01 93 1014.3
20260508041008 22 323 1.6 9.7 0.00 4.01 4.01 94 1014.5
20260508040508 22 335 1.6 9.7 0.00 4.01 4.01 95 1014.4
20260508040025 22 11 3.2 9.7 0.00 4.01 4.01 95 1014.5
20260508035508 22 334 0.0 0.0 0.00 4.01 4.01 96 1014.4
20260508035007 22 296 0.0 0.0 0.00 4.01 4.01 96 1014.3
20260508034535 22 279 0.0 0.0 0.00 4.01 4.01 96 1014.5
20260508034003 22 309 0.0 0.0 0.00 4.01 4.01 96 1014.4
20260508033504 22 298 0.0 0.0 0.00 4.01 4.01 96 1014.4
20260508033017 22 297 0.0 0.0 0.00 4.01 4.01 96 1014.3
20260508032505 22 240 0.0 0.0 0.00 4.01 4.01 96 1014.2
20260508032003 22 240 0.0 0.0 0.00 4.01 4.01 96 1014.1
20260508031521 22 240 0.0 0.0 0.00 4.01 4.01 96 1014.0
20260508031007 22 240 0.0 0.0 0.00 4.01 4.01 95 1014.0
20260508030508 22 240 0.0 0.0 0.00 4.01 4.01 96 1013.8
20260508030025 22 240 0.0 0.0 0.00 4.01 4.01 95 1013.8
20260508025507 22 240 0.0 0.0 0.00 4.01 4.01 95 1013.7
20260508025008 22 240 0.0 0.0 0.00 4.01 4.01 95 1013.6
20260508024534 22 240 0.0 0.0 0.00 4.01 4.01 95 1013.5
20260508024006 22 240 0.0 0.0 0.00 4.01 4.01 96 1013.5
20260508023506 22 240 0.0 0.0 0.00 4.01 4.01 96 1013.6
20260508023015 22 240 0.0 0.0 0.00 4.01 4.01 95 1013.5
20260508022503 22 240 0.0 0.0 0.00 4.01 4.01 95 1013.6
20260508022004 22 240 0.0 0.0 0.00 4.01 4.01 95 1013.5
20260508021517 22 240 0.0 0.0 0.00 4.01 4.01 95 1013.4
20260508021007 22 240 0.0 0.0 0.00 4.01 4.01 94 1013.5
20260508020506 22 240 0.0 0.0 0.00 4.01 4.01 94 1013.4
20260508020023 22 240 0.0 0.0 0.00 4.01 4.01 94 1013.4
20260508015507 22 240 0.0 0.0 0.00 4.01 4.01 94 1013.4
20260508015010 22 240 0.0 0.0 0.00 4.01 4.01 94 1013.3
20260508014527 22 240 0.0 0.0 0.00 4.01 4.01 94 1013.4
20260508014008 22 240 0.0 0.0 0.00 4.01 4.01 94 1013.2
20260508013508 22 240 0.0 0.0 0.00 4.01 4.01 93 1013.2
20260508013028 22 240 0.0 0.0 0.00 4.01 4.01 93 1013.1
20260508012503 22 240 0.0 0.0 0.00 4.01 4.01 93 1012.9
20260508012003 23 240 0.0 0.0 0.00 4.01 4.01 93 1012.9
20260508011522 23 240 0.0 0.0 0.00 4.01 4.01 92 1012.9
20260508011010 23 240 0.0 0.0 0.00 4.01 4.01 92 1012.9
20260508010506 23 240 0.0 0.0 0.00 4.01 4.01 92 1012.9
20260508010022 23 240 0.0 0.0 0.00 4.01 4.01 92 1012.8
20260508005506 23 240 0.0 0.0 0.00 4.01 4.01 92 1012.8
20260508005007 23 240 0.0 0.0 0.00 4.01 4.01 92 1012.9
20260508004527 23 207 0.0 0.0 0.00 4.01 4.01 92 1012.8
20260508004009 23 206 0.0 0.0 0.00 4.01 4.01 92 1012.7
20260508003511 23 248 0.0 0.0 0.00 4.01 4.01 91 1012.8
20260508003027 23 248 0.0 0.0 0.00 4.01 4.01 91 1012.9
20260508002510 23 248 0.0 0.0 0.00 4.01 4.01 91 1012.9
20260508002011 23 248 0.0 1.6 0.00 4.01 4.01 91 1012.8
20260508001514 23 178 0.0 3.2 0.00 4.01 4.01 91 1012.7
20260508001003 23 261 0.0 3.2 0.00 4.01 4.01 90 1012.7
20260508000505 23 350 0.0 3.2 0.00 4.01 4.01 90 1012.8
20260508000021 23 265 0.0 3.2 0.00 4.01 4.01 90 1012.7
20260507235507 23 264 0.0 3.2 0.00 4.01 4.01 90 1012.6
20260507235007 23 263 0.0 3.2 0.00 4.01 4.01 90 1012.5
20260507234523 23 208 0.0 6.4 0.00 4.01 4.01 89 1012.5
20260507234008 23 252 0.0 6.4 0.00 4.01 4.01 89 1012.6
20260507233516 23 240 1.6 6.4 0.00 4.01 4.01 89 1012.7
20260507233032 24 282 1.6 6.4 0.00 4.01 4.01 89 1012.8
20260507232509 24 279 3.2 4.8 0.00 4.01 4.01 89 1012.8
20260507232009 24 292 0.0 6.4 0.00 4.01 4.01 89 1012.8
20260507231538 24 298 3.2 6.4 0.00 4.01 4.01 89 1012.9
20260507231011 24 288 1.6 6.4 0.00 4.01 4.01 88 1012.8
20260507230509 24 286 1.6 6.4 0.00 4.01 4.01 88 1012.8
20260507230019 24 293 1.6 4.8 0.00 4.01 4.01 88 1012.7
20260507225507 24 248 1.6 4.8 0.00 4.01 4.01 88 1012.7
20260507225007 24 264 1.6 4.8 0.00 4.01 4.01 88 1012.7
20260507224522 24 279 0.0 6.4 0.00 4.01 4.01 88 1012.8
20260507224007 24 258 1.6 9.7 0.00 4.01 4.01 87 1012.8
20260507223507 24 310 1.6 9.7 0.00 4.01 4.01 87 1012.8
20260507223026 25 255 3.2 9.7 0.00 4.01 4.01 87 1012.8
20260507222510 25 294 1.6 11.3 0.00 4.01 4.01 87 1012.8
20260507222009 25 312 0.0 11.3 0.00 4.01 4.01 88 1012.9
20260507221530 24 216 3.2 12.9 0.00 4.01 4.01 88 1012.8
20260507221013 24 252 3.2 14.5 0.00 4.01 4.01 87 1012.8
20260507220509 24 266 3.2 14.5 0.00 4.01 4.01 88 1012.7
20260507220029 24 309 6.4 14.5 0.00 4.01 4.01 87 1012.7
20260507215507 25 285 1.6 11.3 0.00 4.01 4.01 88 1012.7
20260507215008 25 331 1.6 6.4 0.00 4.01 4.01 89 1012.8
20260507214521 24 245 0.0 12.9 0.00 4.01 4.01 92 1012.9
20260507214004 24 268 3.2 14.5 0.00 4.01 4.01 91 1012.9
20260507213503 24 311 6.4 14.5 0.00 4.01 4.01 90 1012.8
20260507213004 24 286 4.8 12.9 0.00 4.01 4.01 91 1012.9
20260507212504 24 275 6.4 12.9 0.00 4.01 4.01 91 1012.8
20260507212004 24 277 1.6 6.4 0.00 4.01 4.01 92 1012.7
20260507211511 24 283 1.6 4.8 0.00 4.01 4.01 92 1012.8
20260507211006 24 302 1.6 6.4 0.00 4.01 4.01 91 1012.7
20260507210506 24 276 1.6 22.5 0.00 4.01 4.01 91 1012.8
20260507210013 24 272 6.4 22.5 0.00 4.01 4.01 90 1012.6
20260507205503 24 229 4.8 11.3 0.00 4.01 4.01 91 1012.7
20260507205006 24 269 3.2 11.3 0.00 4.01 4.01 92 1012.7
20260507204519 24 224 1.6 6.4 0.00 4.01 4.01 93 1012.7
20260507204007 24 314 0.0 6.4 0.00 4.01 4.01 94 1012.5
20260507203505 23 64 0.0 6.4 0.00 4.01 4.01 94 1012.6
20260507203002 23 236 0.0 0.0 0.00 4.01 4.01 94 1012.9
20260507202502 23 223 0.0 0.0 0.00 4.01 4.01 94 1012.8
20260507202002 23 223 0.0 0.0 0.00 4.01 4.01 94 1012.9
20260507201507 23 223 0.0 0.0 0.00 4.01 4.01 94 1012.9
20260507201002 23 173 0.0 0.0 0.00 4.01 4.01 94 1012.7
20260507200503 23 238 0.0 0.0 0.00 4.01 4.01 94 1012.7
20260507200012 23 182 0.0 0.0 0.00 4.01 4.01 94 1013.0
20260507195504 23 341 0.0 0.0 0.00 4.01 4.01 94 1013.0
20260507195006 23 341 0.0 0.0 0.00 4.01 4.01 94 1013.0
20260507194518 23 341 0.0 0.0 0.00 4.01 4.01 94 1013.3
20260507194006 23 341 0.0 6.4 0.03 4.01 4.01 94 1013.3
20260507193506 23 314 1.6 6.4 0.03 4.01 4.01 94 1013.4
20260507193024 23 344 3.2 6.4 0.03 4.01 4.01 94 1013.5
20260507192502 23 331 0.0 3.2 0.03 4.01 4.01 93 1013.4
20260507192007 23 326 0.0 3.2 0.03 4.01 4.01 94 1013.1
20260507191506 23 314 1.6 4.8 0.03 4.01 4.01 94 1013.2
20260507191001 22 243 0.0 4.8 0.03 4.01 4.01 94 1013.1
20260507190505 22 277 0.0 3.2 0.03 4.01 4.01 94 1013.3
20260507190012 22 332 0.0 3.2 0.03 4.01 4.01 94 1013.2
20260507185502 22 332 1.6 4.8 0.03 4.01 4.01 94 1013.3
20260507185010 22 260 0.0 4.8 0.03 4.01 4.01 94 1013.4
20260507184515 22 300 0.0 4.8 0.03 4.01 4.01 93 1013.7
20260507184003 22 282 0.0 3.2 0.00 3.99 3.99 94 1013.5
20260507183508 22 261 1.6 6.4 0.00 3.99 3.99 94 1013.8
20260507183034 22 243 1.6 6.4 0.00 3.99 3.99 94 1013.9
20260507182507 22 184 0.0 4.8 0.00 3.99 3.99 94 1014.0
20260507182008 22 290 0.0 3.2 0.00 3.99 3.99 94 1014.2
20260507181505 22 291 0.0 8.0 0.00 3.99 3.99 95 1014.0
20260507181004 22 257 0.0 8.0 0.00 3.99 3.99 94 1014.3
20260507180503 22 173 1.6 8.0 0.00 3.99 3.99 95 1014.3
20260507180008 22 236 3.2 11.3 0.00 3.99 3.99 96 1014.5